M I D A S
Marine Information and Data Acquisition System
Tripno 1652 of the Zeeleeuw from 2009-03-03 07:48:57 to 2009-03-03 15:26:41
Back to CruiseResearch ActivitiesStationsMapUnderway DataData graphs

EquipmentUnitsComments
TimeDGPSUTC
LatitudeDGPSDM.mWGS84
LongitudeDGPSDM.mWGS84
SpeedMeteo Stationm/sRelative wind speed
DirectionMeteo StationdegRelative wind direction
TemperatureMeteo Stationdeg CelciusAir temperature
PressureMeteo StationPaAtmospheric pressure
HumidityMeteo Station%Relative humidity
Missing or incorrect values are displayed as -999
Metereological data collected by the RV Zeeleeuw from 2009-03-03 07:41:01 to 2009-03-03 15:35:30
                                                                                    Next 1000 lines
Time Latitude Longitude Speed Direction Temperature Pressure Humidity
2009-03-03 07:41:10 51°13.661 2°55.957 2 6 5.6 101260 88
2009-03-03 07:41:16 51°13.661 2°55.956 3 20 5.6 101260 88
2009-03-03 07:41:21 51°13.662 2°55.954 3.1 24 5.6 101250 88
2009-03-03 07:41:25 51°13.663 2°55.952 2.2 1 5.6 101250 88
2009-03-03 07:41:30 51°13.664 2°55.95 2.8 28 5.6 101260 88
2009-03-03 07:41:36 51°13.665 2°55.946 1.9 27 5.6 101260 88
2009-03-03 07:41:41 51°13.666 2°55.943 2.1 38 5.6 101260 88
2009-03-03 07:41:47 51°13.667 2°55.94 2.8 30 5.6 101260 88
2009-03-03 07:41:52 51°13.668 2°55.936 2.3 4 5.6 101260 87
2009-03-03 07:41:58 51°13.67 2°55.932 1.8 15 5.6 101260 87
2009-03-03 07:42:03 51°13.671 2°55.928 1.7 31 5.6 101250 88
2009-03-03 07:42:09 51°13.673 2°55.923 2.8 1 5.6 101250 88
2009-03-03 07:42:14 51°13.675 2°55.918 2.8 15 5.6 101260 89
2009-03-03 07:42:20 51°13.676 2°55.912 3 27 5.6 101260 89
2009-03-03 07:42:25 51°13.677 2°55.907 2.4 20 5.6 101260 88
2009-03-03 07:42:29 51°13.678 2°55.903 2.7 23 5.6 101260 88
2009-03-03 07:42:34 51°13.679 2°55.898 3.3 10 5.6 101260 88
2009-03-03 07:42:39 51°13.681 2°55.892 4.4 51 5.6 101260 88
2009-03-03 07:42:45 51°13.682 2°55.885 3.7 25 5.6 101260 88
2009-03-03 07:42:49 51°13.683 2°55.881 1.8 56 5.6 101260 88
2009-03-03 07:42:54 51°13.685 2°55.875 1.7 7 5.6 101250 88
2009-03-03 07:43:00 51°13.686 2°55.868 3.9 24 5.6 101250 88
2009-03-03 07:43:04 51°13.687 2°55.863 2.1 25 5.6 101260 88
2009-03-03 07:43:09 51°13.688 2°55.857 3.5 32 5.6 101260 88
2009-03-03 07:43:14 51°13.69 2°55.851 3.1 25 5.7 101250 88
2009-03-03 07:43:19 51°13.69 2°55.845 5.7 36 5.7 101250 88
2009-03-03 07:43:24 51°13.691 2°55.838 4.7 38 5.7 101260 88
2009-03-03 07:43:29 51°13.692 2°55.832 3.7 54 5.7 101260 88
2009-03-03 07:43:34 51°13.693 2°55.826 4.7 25 5.7 101260 88
2009-03-03 07:43:40 51°13.694 2°55.818 5.3 35 5.7 101260 88
2009-03-03 07:43:44 51°13.695 2°55.814 5.6 36 5.7 101260 89
2009-03-03 07:43:49 51°13.695 2°55.807 5.7 40 5.7 101260 89
2009-03-03 07:43:54 51°13.695 2°55.801 6.9 34 5.7 101250 88
2009-03-03 07:44:00 51°13.696 2°55.793 7.2 39 5.7 101250 88
2009-03-03 07:44:05 51°13.696 2°55.787 7 39 5.7 101250 89
2009-03-03 07:44:09 51°13.697 2°55.783 5.3 55 5.7 101250 89
2009-03-03 07:44:14 51°13.698 2°55.777 4.3 35 5.6 101250 89
2009-03-03 07:44:20 51°13.698 2°55.772 5.1 52 5.6 101250 89
2009-03-03 07:44:25 51°13.699 2°55.768 4.1 44 5.7 101250 88
2009-03-03 07:44:29 51°13.699 2°55.766 4.4 41 5.7 101250 88
2009-03-03 07:44:34 51°13.7 2°55.765 4.2 41 5.7 101250 87
2009-03-03 07:44:40 51°13.701 2°55.765 2.7 25 5.7 101250 87
2009-03-03 07:44:45 51°13.702 2°55.766 3.1 43 5.6 101250 88
2009-03-03 07:44:49 51°13.703 2°55.767 2.4 39 5.6 101250 88
2009-03-03 07:44:54 51°13.705 2°55.769 1.8 21 5.7 101250 88
2009-03-03 07:45:00 51°13.707 2°55.771 2.9 59 5.7 101250 88
2009-03-03 07:45:05 51°13.709 2°55.772 2.7 21 5.7 101250 88
2009-03-03 07:45:09 51°13.71 2°55.773 3.3 41 5.7 101250 88
2009-03-03 07:45:14 51°13.711 2°55.773 3.1 38 5.7 101250 88
2009-03-03 07:45:19 51°13.711 2°55.773 2.9 57 5.7 101250 88
2009-03-03 07:45:25 51°13.711 2°55.772 4.6 25 5.7 101250 88
2009-03-03 07:45:29 51°13.71 2°55.772 4.6 56 5.7 101250 88
2009-03-03 07:45:34 51°13.709 2°55.77 2.9 24 5.7 101260 88
2009-03-03 07:45:39 51°13.708 2°55.769 1.9 51 5.7 101260 88
2009-03-03 07:45:44 51°13.707 2°55.768 3.3 27 5.7 101250 88
2009-03-03 07:45:49 51°13.705 2°55.767 5.6 55 5.7 101250 88
2009-03-03 07:45:54 51°13.704 2°55.766 3.5 19 5.7 101250 88
2009-03-03 07:46:00 51°13.703 2°55.765 5.3 53 5.7 101250 88
2009-03-03 07:46:04 51°13.703 2°55.764 3.8 20 5.7 101250 88
2009-03-03 07:46:09 51°13.703 2°55.764 3.2 55 5.7 101250 88
2009-03-03 07:46:14 51°13.703 2°55.764 2.7 25 5.7 101260 88
2009-03-03 07:46:20 51°13.704 2°55.763 4.7 54 5.7 101260 88
2009-03-03 07:46:25 51°13.705 2°55.762 5.2 25 5.7 101260 88
2009-03-03 07:46:29 51°13.707 2°55.762 3.3 57 5.7 101260 88
2009-03-03 07:46:34 51°13.709 2°55.761 2.4 25 5.8 101260 88
2009-03-03 07:46:39 51°13.711 2°55.76 2.9 58 5.8 101260 88
2009-03-03 07:46:44 51°13.713 2°55.758 4.4 21 5.7 101260 89
2009-03-03 07:46:49 51°13.716 2°55.756 1.9 311 5.7 101260 89
2009-03-03 07:46:54 51°13.72 2°55.752 2.9 267 5.8 101250 89
2009-03-03 07:47:00 51°13.724 2°55.748 3.6 307 5.8 101250 89
2009-03-03 07:47:05 51°13.728 2°55.743 3.3 269 5.8 101250 89
2009-03-03 07:47:09 51°13.731 2°55.739 4.2 305 5.8 101250 89
2009-03-03 07:47:14 51°13.736 2°55.733 2.2 267 5.7 101250 89
2009-03-03 07:47:19 51°13.741 2°55.726 2.8 53 5.7 101250 89
2009-03-03 07:47:24 51°13.747 2°55.719 2.8 261 5.7 101250 89
2009-03-03 07:47:29 51°13.754 2°55.71 3.1 308 5.7 101250 89
2009-03-03 07:47:33 51°13.76 2°55.703 3.1 245 5.8 101250 89
2009-03-03 07:47:38 51°13.768 2°55.694 2.3 308 5.8 101250 89
2009-03-03 07:47:42 51°13.775 2°55.686 2.8 247 5.8 101250 88
2009-03-03 07:47:48 51°13.786 2°55.675 4.6 303 5.8 101250 88
2009-03-03 07:47:52 51°13.794 2°55.667 4.9 23 5.8 101250 88
2009-03-03 07:47:57 51°13.804 2°55.658 4.5 304 5.8 101250 88
2009-03-03 07:48:02 51°13.815 2°55.648 3.7 20 5.8 101250 88
2009-03-03 07:48:07 51°13.826 2°55.639 3.9 304 5.8 101250 88
2009-03-03 07:48:11 51°13.835 2°55.632 3.4 251 5.7 101250 88
2009-03-03 07:48:16 51°13.846 2°55.623 3.5 311 5.7 101250 88
2009-03-03 07:48:21 51°13.858 2°55.614 3.1 25 5.8 101250 88
2009-03-03 07:48:26 51°13.87 2°55.605 2.6 306 5.8 101250 88
2009-03-03 07:48:30 51°13.879 2°55.597 2.2 250 5.8 101250 88
2009-03-03 07:48:36 51°13.894 2°55.586 2 309 5.8 101250 88
2009-03-03 07:48:41 51°13.906 2°55.577 1.8 327 5.8 101250 89
2009-03-03 07:48:46 51°13.919 2°55.568 2.3 308 5.8 101250 89
2009-03-03 07:48:50 51°13.929 2°55.56 2.9 19 5.8 101250 88
2009-03-03 07:48:56 51°13.944 2°55.55 2.1 305 5.8 101250 88
2009-03-03 07:49:01 51°13.956 2°55.54 1.3 23 5.8 101250 89
2009-03-03 07:49:06 51°13.969 2°55.531 1.5 330 5.8 101250 89
2009-03-03 07:49:10 51°13.979 2°55.524 2.6 322 5.8 101250 88
2009-03-03 07:49:16 51°13.994 2°55.512 3.4 305 5.8 101250 88
2009-03-03 07:49:21 51°14.007 2°55.504 3.2 319 5.8 101250 88
2009-03-03 07:49:26 51°14.019 2°55.495 2.9 303 5.8 101250 88
2009-03-03 07:49:30 51°14.029 2°55.487 2.8 23 5.8 101250 89
2009-03-03 07:49:36 51°14.044 2°55.476 2.8 306 5.8 101250 89
2009-03-03 07:49:41 51°14.057 2°55.468 2.3 27 5.8 101250 88
2009-03-03 07:49:46 51°14.07 2°55.458 2.2 304 5.8 101250 88
2009-03-03 07:49:50 51°14.08 2°55.451 1.9 24 5.8 101240 88
2009-03-03 07:49:56 51°14.095 2°55.439 3.4 302 5.8 101240 88
2009-03-03 07:50:01 51°14.107 2°55.43 4 245 5.8 101240 88
2009-03-03 07:50:05 51°14.117 2°55.421 3.1 303 5.8 101240 88
2009-03-03 07:50:10 51°14.129 2°55.41 5.1 24 5.8 101250 88
2009-03-03 07:50:16 51°14.144 2°55.398 4.7 305 5.8 101250 88
2009-03-03 07:50:21 51°14.156 2°55.386 6.7 251 5.8 101240 88
2009-03-03 07:50:25 51°14.165 2°55.376 5.3 310 5.8 101240 88
2009-03-03 07:50:31 51°14.179 2°55.362 4 24 5.8 101250 89
2009-03-03 07:50:36 51°14.191 2°55.349 3.1 307 5.8 101250 89
2009-03-03 07:50:41 51°14.203 2°55.335 2.5 257 5.8 101250 89
2009-03-03 07:50:46 51°14.214 2°55.322 3.1 302 5.8 101250 89
2009-03-03 07:50:50 51°14.223 2°55.311 3.7 27 5.8 101250 88
2009-03-03 07:50:56 51°14.236 2°55.293 6.4 310 5.8 101250 88
2009-03-03 07:51:01 51°14.247 2°55.278 5.9 18 5.8 101240 88
2009-03-03 07:51:06 51°14.258 2°55.263 4.2 303 5.8 101240 88
2009-03-03 07:51:10 51°14.266 2°55.25 5.6 23 5.8 101240 88
2009-03-03 07:51:16 51°14.278 2°55.23 6 305 5.8 101240 88
2009-03-03 07:51:21 51°14.288 2°55.213 5.8 25 5.8 101240 89
2009-03-03 07:51:26 51°14.298 2°55.196 7.2 303 5.8 101240 89
2009-03-03 07:51:30 51°14.307 2°55.183 8.2 27 5.8 101240 89
2009-03-03 07:51:36 51°14.319 2°55.162 4.4 305 5.8 101240 89
2009-03-03 07:51:41 51°14.329 2°55.144 5.2 24 5.8 101240 89
2009-03-03 07:51:46 51°14.339 2°55.127 8.4 311 5.8 101240 89
2009-03-03 07:51:50 51°14.347 2°55.113 6.4 23 5.8 101240 89
2009-03-03 07:51:56 51°14.36 2°55.092 8.2 305 5.8 101240 89
2009-03-03 07:52:01 51°14.371 2°55.075 6.8 21 5.8 101230 88
2009-03-03 07:52:06 51°14.381 2°55.058 7.1 308 5.8 101230 88
2009-03-03 07:52:11 51°14.392 2°55.041 7.9 24 5.8 101230 88
2009-03-03 07:52:16 51°14.403 2°55.024 7.6 305 5.8 101230 88
2009-03-03 07:52:21 51°14.414 2°55.007 7.5 253 5.8 101230 89
2009-03-03 07:52:26 51°14.426 2°54.992 5.7 310 5.8 101230 89
2009-03-03 07:52:31 51°14.438 2°54.977 6.2 21 5.8 101230 88
2009-03-03 07:52:36 51°14.45 2°54.963 6.7 307 5.8 101230 88
2009-03-03 07:52:41 51°14.461 2°54.945 6.5 246 5.8 101230 89
2009-03-03 07:52:46 51°14.473 2°54.931 6.3 305 5.8 101230 89
2009-03-03 07:52:50 51°14.482 2°54.917 5.1 252 5.8 101230 88
2009-03-03 07:52:56 51°14.496 2°54.897 6.7 304 5.8 101230 88
2009-03-03 07:53:01 51°14.507 2°54.879 8.9 248 5.8 101230 89
2009-03-03 07:53:06 51°14.518 2°54.862 8.8 305 5.8 101230 89
2009-03-03 07:53:10 51°14.527 2°54.848 9.9 19 5.8 101240 89
2009-03-03 07:53:16 51°14.541 2°54.825 10.4 308 5.8 101240 89
2009-03-03 07:53:21 51°14.552 2°54.807 8.9 21 5.8 101230 88
2009-03-03 07:53:25 51°14.56 2°54.791 8.5 303 5.8 101230 88
2009-03-03 07:53:30 51°14.571 2°54.772 8.6 25 5.8 101230 88
2009-03-03 07:53:36 51°14.584 2°54.749 8 303 5.8 101230 88
2009-03-03 07:53:41 51°14.595 2°54.729 8.2 24 5.8 101230 88
2009-03-03 07:53:46 51°14.607 2°54.709 7.5 310 5.8 101230 88
2009-03-03 07:53:51 51°14.618 2°54.689 7.7 24 5.8 101240 88
2009-03-03 07:53:56 51°14.629 2°54.668 9.6 304 5.8 101240 88
2009-03-03 07:54:01 51°14.64 2°54.647 8.9 25 5.8 101230 87
2009-03-03 07:54:05 51°14.649 2°54.631 8.9 310 5.8 101230 87
2009-03-03 07:54:10 51°14.661 2°54.61 10.4 19 5.8 101230 88
2009-03-03 07:54:16 51°14.674 2°54.585 8 305 5.8 101230 88
2009-03-03 07:54:21 51°14.686 2°54.564 7.3 25 5.8 101230 89
2009-03-03 07:54:26 51°14.698 2°54.544 7.5 307 5.8 101230 89
2009-03-03 07:54:31 51°14.709 2°54.523 7.8 21 5.8 101230 88
2009-03-03 07:54:36 51°14.72 2°54.502 9.3 307 5.8 101230 88
2009-03-03 07:54:41 51°14.731 2°54.48 11.2 245 5.8 101230 89
2009-03-03 07:54:46 51°14.742 2°54.458 12 304 5.8 101230 89
2009-03-03 07:54:50 51°14.75 2°54.44 10.3 247 5.8 101230 88
2009-03-03 07:54:56 51°14.76 2°54.411 9.7 306 5.8 101230 88
2009-03-03 07:55:01 51°14.768 2°54.387 12.3 245 5.8 101220 89
2009-03-03 07:55:06 51°14.775 2°54.363 12 306 5.8 101220 89
2009-03-03 07:55:10 51°14.781 2°54.342 13 22 5.8 101220 88
2009-03-03 07:55:16 51°14.788 2°54.311 11.5 304 5.8 101220 88
2009-03-03 07:55:21 51°14.793 2°54.285 11 24 5.8 101220 89
2009-03-03 07:55:25 51°14.797 2°54.264 10.5 306 5.8 101220 89
2009-03-03 07:55:30 51°14.801 2°54.237 12.3 22 5.8 101220 87
2009-03-03 07:55:36 51°14.807 2°54.205 11.1 307 5.8 101220 87
2009-03-03 07:55:41 51°14.81 2°54.179 12 22 5.8 101210 88
2009-03-03 07:55:46 51°14.814 2°54.152 13.2 305 5.8 101210 88
2009-03-03 07:55:50 51°14.817 2°54.13 13.1 27 5.8 101220 88
2009-03-03 07:55:56 51°14.821 2°54.098 12.3 301 5.8 101220 88
2009-03-03 07:56:01 51°14.825 2°54.071 12.4 25 5.8 101210 87
2009-03-03 07:56:06 51°14.828 2°54.044 10.8 305 5.8 101210 87
2009-03-03 07:56:10 51°14.831 2°54.022 11.3 21 5.8 101210 88
2009-03-03 07:56:16 51°14.835 2°53.99 9.9 302 5.8 101210 88
2009-03-03 07:56:21 51°14.838 2°53.963 11.9 21 5.8 101210 87
2009-03-03 07:56:25 51°14.841 2°53.941 12.8 304 5.8 101210 87
2009-03-03 07:56:30 51°14.845 2°53.914 12 21 5.8 101210 89
2009-03-03 07:56:36 51°14.849 2°53.881 12.2 304 5.8 101210 89
2009-03-03 07:56:41 51°14.853 2°53.854 12.8 21 5.8 101210 88
2009-03-03 07:56:46 51°14.857 2°53.827 10.6 304 5.8 101210 88
2009-03-03 07:56:50 51°14.86 2°53.805 12.6 25 5.8 101210 88
2009-03-03 07:56:56 51°14.864 2°53.772 12.3 310 5.8 101210 88
2009-03-03 07:57:01 51°14.868 2°53.745 11.7 25 5.8 101200 88
2009-03-03 07:57:06 51°14.872 2°53.719 13.5 308 5.8 101200 88
2009-03-03 07:57:11 51°14.876 2°53.692 12.9 23 5.7 101210 89
2009-03-03 07:57:16 51°14.881 2°53.666 11 304 5.7 101210 89
2009-03-03 07:57:21 51°14.886 2°53.639 12 24 5.7 101210 89
2009-03-03 07:57:25 51°14.89 2°53.619 12.6 307 5.7 101210 89
2009-03-03 07:57:30 51°14.896 2°53.593 11.5 24 5.8 101210 87
2009-03-03 07:57:36 51°14.904 2°53.562 10.7 305 5.8 101210 87
2009-03-03 07:57:41 51°14.91 2°53.536 10.9 22 5.7 101210 88
2009-03-03 07:57:46 51°14.917 2°53.511 9.3 309 5.7 101210 88
2009-03-03 07:57:50 51°14.922 2°53.49 12 22 5.8 101220 89
2009-03-03 07:57:56 51°14.929 2°53.459 12.2 310 5.8 101220 89
2009-03-03 07:58:01 51°14.934 2°53.433 12.2 24 5.7 101220 88
2009-03-03 07:58:05 51°14.939 2°53.412 9.4 303 5.7 101220 88
2009-03-03 07:58:10 51°14.946 2°53.386 11.9 23 5.7 101220 87
2009-03-03 07:58:16 51°14.953 2°53.356 10.9 309 5.7 101220 87
2009-03-03 07:58:21 51°14.96 2°53.33 10.2 21 5.7 101210 88
2009-03-03 07:58:26 51°14.966 2°53.305 9.7 307 5.7 101210 88
2009-03-03 07:58:31 51°14.973 2°53.28 9.9 23 5.8 101210 87
2009-03-03 07:58:36 51°14.98 2°53.254 12.2 308 5.8 101210 87
2009-03-03 07:58:41 51°14.987 2°53.229 11.7 26 5.7 101220 88
2009-03-03 07:58:45 51°14.992 2°53.209 13.2 310 5.7 101220 88
2009-03-03 07:58:50 51°14.998 2°53.183 11.9 19 5.7 101220 88
2009-03-03 07:58:56 51°15.005 2°53.153 10.9 305 5.7 101220 88
2009-03-03 07:59:01 51°15.011 2°53.127 10.9 24 5.7 101210 87
2009-03-03 07:59:05 51°15.016 2°53.106 12.1 304 5.7 101210 87
2009-03-03 07:59:11 51°15.023 2°53.075 12.1 22 5.7 101210 88
2009-03-03 07:59:16 51°15.029 2°53.049 10.8 308 5.7 101210 88
2009-03-03 07:59:21 51°15.034 2°53.023 10.5 22 5.7 101220 89
2009-03-03 07:59:25 51°15.039 2°53.003 10.7 307 5.7 101220 89
2009-03-03 07:59:31 51°15.045 2°52.971 12 20 5.7 101210 89
2009-03-03 07:59:36 51°15.051 2°52.945 11.2 307 5.7 101210 89
2009-03-03 07:59:41 51°15.056 2°52.919 11.1 22 5.7 101210 87
2009-03-03 07:59:45 51°15.06 2°52.898 12 301 5.7 101210 87
2009-03-03 07:59:50 51°15.065 2°52.871 10.4 26 5.7 101210 89
2009-03-03 07:59:56 51°15.071 2°52.84 11.9 311 5.7 101210 89
2009-03-03 08:00:01 51°15.077 2°52.814 11.3 19 5.7 101210 89
2009-03-03 08:00:05 51°15.081 2°52.793 12.7 304 5.7 101210 89
2009-03-03 08:00:10 51°15.086 2°52.766 12.4 26 5.7 101200 89
2009-03-03 08:00:16 51°15.093 2°52.735 10.6 304 5.7 101200 89
2009-03-03 08:00:21 51°15.098 2°52.708 11.5 23 5.7 101210 89
2009-03-03 08:00:26 51°15.103 2°52.682 11.4 309 5.7 101210 89
2009-03-03 08:00:30 51°15.107 2°52.661 12 19 5.7 101210 87
2009-03-03 08:00:36 51°15.114 2°52.629 10.3 308 5.7 101210 87
2009-03-03 08:00:41 51°15.119 2°52.603 10.5 23 5.7 101210 88
2009-03-03 08:00:45 51°15.123 2°52.582 10.8 305 5.7 101210 88
2009-03-03 08:00:50 51°15.129 2°52.556 11.1 26 5.7 101210 87
2009-03-03 08:00:56 51°15.135 2°52.524 11.7 307 5.7 101210 87
2009-03-03 08:01:01 51°15.141 2°52.498 10.7 24 5.7 101210 88
2009-03-03 08:01:06 51°15.146 2°52.472 11.4 307 5.7 101210 88
2009-03-03 08:01:11 51°15.152 2°52.445 11.3 20 5.7 101210 87
2009-03-03 08:01:16 51°15.158 2°52.419 11.3 308 5.7 101210 87
2009-03-03 08:01:21 51°15.163 2°52.393 12.9 21 5.7 101210 88
2009-03-03 08:01:25 51°15.168 2°52.372 11.9 307 5.7 101210 88
2009-03-03 08:01:30 51°15.173 2°52.346 9.6 25 5.7 101200 87
2009-03-03 08:01:36 51°15.18 2°52.314 10.6 304 5.7 101200 87
2009-03-03 08:01:41 51°15.186 2°52.288 10.2 21 5.7 101200 88
2009-03-03 08:01:46 51°15.192 2°52.262 9.4 303 5.7 101200 88
2009-03-03 08:01:50 51°15.196 2°52.241 10.1 20 5.7 101210 87
2009-03-03 08:01:56 51°15.203 2°52.209 10.8 306 5.7 101210 87
2009-03-03 08:02:01 51°15.209 2°52.183 10 27 5.7 101200 88
2009-03-03 08:02:05 51°15.213 2°52.162 12 310 5.7 101200 88
2009-03-03 08:02:11 51°15.22 2°52.131 10.6 19 5.7 101210 87
2009-03-03 08:02:16 51°15.226 2°52.104 9.7 304 5.7 101210 87
2009-03-03 08:02:21 51°15.232 2°52.078 11.1 22 5.7 101200 87
2009-03-03 08:02:26 51°15.237 2°52.051 11 310 5.7 101200 87
2009-03-03 08:02:30 51°15.24 2°52.03 9.6 19 5.7 101210 88
2009-03-03 08:02:36 51°15.247 2°51.998 11.7 307 5.7 101210 88
2009-03-03 08:02:41 51°15.251 2°51.971 10.7 21 5.7 101200 89
2009-03-03 08:02:45 51°15.255 2°51.949 10.7 308 5.7 101200 89
2009-03-03 08:02:50 51°15.259 2°51.922 12.5 19 5.7 101200 87
2009-03-03 08:02:56 51°15.264 2°51.89 12 307 5.7 101200 87
2009-03-03 08:03:01 51°15.268 2°51.863 10.1 23 5.7 101200 87
2009-03-03 08:03:06 51°15.273 2°51.835 12.2 302 5.7 101200 87
2009-03-03 08:03:10 51°15.276 2°51.814 12.4 23 5.7 101200 87
2009-03-03 08:03:16 51°15.281 2°51.781 11.2 305 5.7 101200 87
2009-03-03 08:03:21 51°15.285 2°51.754 11.2 24 5.7 101200 87
2009-03-03 08:03:26 51°15.289 2°51.726 9.8 306 5.7 101200 87
2009-03-03 08:03:31 51°15.293 2°51.699 11.6 20 5.7 101200 88
2009-03-03 08:03:36 51°15.298 2°51.672 12.1 304 5.7 101200 88
2009-03-03 08:03:41 51°15.302 2°51.645 12.4 22 5.7 101200 87
2009-03-03 08:03:45 51°15.305 2°51.623 10.6 305 5.7 101200 87
2009-03-03 08:03:50 51°15.309 2°51.596 12.4 22 5.7 101200 88
2009-03-03 08:03:56 51°15.314 2°51.563 12.3 306 5.7 101200 88
2009-03-03 08:04:01 51°15.318 2°51.535 13.1 20 5.7 101200 88
2009-03-03 08:04:05 51°15.322 2°51.513 12.8 308 5.7 101200 88
2009-03-03 08:04:11 51°15.327 2°51.481 10.9 19 5.7 101200 87
2009-03-03 08:04:16 51°15.331 2°51.453 13.5 308 5.7 101200 87
2009-03-03 08:04:21 51°15.335 2°51.426 11 25 5.7 101200 87
2009-03-03 08:04:25 51°15.339 2°51.404 13.3 302 5.7 101200 87
2009-03-03 08:04:31 51°15.343 2°51.371 10.5 24 5.7 101200 87
2009-03-03 08:04:36 51°15.348 2°51.344 11.3 303 5.7 101200 87
2009-03-03 08:04:41 51°15.352 2°51.317 13.1 24 5.7 101200 88
2009-03-03 08:04:46 51°15.356 2°51.289 10.6 305 5.7 101200 88
2009-03-03 08:04:50 51°15.359 2°51.268 10.3 26 5.7 101190 87
2009-03-03 08:04:56 51°15.363 2°51.235 11 303 5.7 101190 87
2009-03-03 08:05:01 51°15.367 2°51.207 11.6 21 5.7 101200 88
2009-03-03 08:05:05 51°15.368 2°51.185 12 304 5.7 101200 88
2009-03-03 08:05:10 51°15.37 2°51.158 11.3 23 5.7 101200 88
2009-03-03 08:05:16 51°15.372 2°51.124 13.8 308 5.7 101200 88
2009-03-03 08:05:21 51°15.373 2°51.097 12 21 5.7 101200 89
2009-03-03 08:05:26 51°15.373 2°51.069 11.9 309 5.7 101200 89
2009-03-03 08:05:31 51°15.374 2°51.041 11 23 5.7 101200 88
2009-03-03 08:05:36 51°15.374 2°51.013 11.2 306 5.7 101200 88
2009-03-03 08:05:41 51°15.374 2°50.985 13.4 20 5.7 101190 88
2009-03-03 08:05:45 51°15.374 2°50.963 15.1 306 5.7 101190 88
2009-03-03 08:05:50 51°15.373 2°50.935 12.3 26 5.7 101190 87
2009-03-03 08:05:56 51°15.373 2°50.902 12.6 304 5.7 101190 87
2009-03-03 08:06:01 51°15.373 2°50.874 14.5 21 5.7 101190 88
2009-03-03 08:06:05 51°15.373 2°50.852 13.9 305 5.7 101190 88
2009-03-03 08:06:11 51°15.372 2°50.819 15.3 22 5.7 101180 88
2009-03-03 08:06:16 51°15.372 2°50.791 13.5 304 5.7 101180 88
2009-03-03 08:06:21 51°15.372 2°50.763 15 21 5.7 101180 87
2009-03-03 08:06:26 51°15.371 2°50.735 11.4 303 5.7 101180 87
2009-03-03 08:06:31 51°15.371 2°50.707 13.4 27 5.7 101180 89
2009-03-03 08:06:36 51°15.371 2°50.679 14.7 306 5.7 101180 89
2009-03-03 08:06:41 51°15.369 2°50.652 14.9 21 5.7 101180 88
2009-03-03 08:06:45 51°15.369 2°50.63 12.8 306 5.7 101180 88
2009-03-03 08:06:50 51°15.368 2°50.602 15 22 5.7 101180 88
2009-03-03 08:06:56 51°15.366 2°50.569 15.3 307 5.7 101180 88
2009-03-03 08:07:01 51°15.365 2°50.541 16 22 5.7 101180 88
2009-03-03 08:07:06 51°15.363 2°50.514 14.9 307 5.7 101180 88
2009-03-03 08:07:10 51°15.362 2°50.492 14 20 5.8 101180 87
2009-03-03 08:07:16 51°15.36 2°50.459 14.6 309 5.8 101180 87
2009-03-03 08:07:21 51°15.359 2°50.431 13.6 20 5.8 101180 88
2009-03-03 08:07:26 51°15.357 2°50.403 13.9 308 5.8 101180 88
2009-03-03 08:07:30 51°15.355 2°50.381 11.9 22 5.7 101170 87
2009-03-03 08:07:36 51°15.354 2°50.348 14.2 307 5.7 101170 87
2009-03-03 08:07:41 51°15.352 2°50.321 12.9 24 5.8 101170 88
2009-03-03 08:07:45 51°15.351 2°50.299 14.2 310 5.8 101170 88
2009-03-03 08:07:50 51°15.35 2°50.271 12.3 20 5.8 101180 87
2009-03-03 08:07:56 51°15.348 2°50.238 11.7 304 5.8 101180 87
2009-03-03 08:08:01 51°15.346 2°50.211 13.8 27 5.8 101180 88
2009-03-03 08:08:06 51°15.345 2°50.183 13.8 280 5.8 101180 88
2009-03-03 08:08:11 51°15.343 2°50.155 12.1 26 5.8 101180 87
2009-03-03 08:08:16 51°15.342 2°50.128 12.8 306 5.8 101180 87
2009-03-03 08:08:21 51°15.34 2°50.1 15.4 23 5.8 101180 88
2009-03-03 08:08:25 51°15.339 2°50.078 11.2 305 5.8 101180 88
2009-03-03 08:08:30 51°15.337 2°50.051 12 26 5.8 101180 88
2009-03-03 08:08:36 51°15.335 2°50.018 12.1 309 5.8 101180 88
2009-03-03 08:08:41 51°15.334 2°49.99 13.9 19 5.8 101180 87
2009-03-03 08:08:45 51°15.333 2°49.968 12.7 306 5.8 101180 87
2009-03-03 08:08:51 51°15.331 2°49.935 13.9 21 5.8 101180 87
2009-03-03 08:08:56 51°15.329 2°49.907 14.4 302 5.8 101180 87
2009-03-03 08:09:01 51°15.328 2°49.88 15.4 26 5.8 101180 87
2009-03-03 08:09:06 51°15.327 2°49.852 13.7 304 5.8 101180 87
2009-03-03 08:09:10 51°15.325 2°49.83 15.1 22 5.8 101180 88
2009-03-03 08:09:16 51°15.323 2°49.797 14.8 302 5.8 101180 88
2009-03-03 08:09:21 51°15.32 2°49.77 11.8 22 5.8 101180 88
2009-03-03 08:09:25 51°15.319 2°49.748 15 306 5.8 101180 88
2009-03-03 08:09:30 51°15.316 2°49.721 14.9 22 5.8 101180 88
2009-03-03 08:09:36 51°15.314 2°49.688 12 303 5.8 101180 88
2009-03-03 08:09:41 51°15.312 2°49.661 13 26 5.8 101170 88
2009-03-03 08:09:46 51°15.31 2°49.633 14.3 306 5.8 101170 88
2009-03-03 08:09:51 51°15.308 2°49.606 12 24 5.8 101180 88
2009-03-03 08:09:56 51°15.306 2°49.578 15.1 307 5.8 101180 88
2009-03-03 08:10:01 51°15.304 2°49.551 14.8 23 5.8 101170 89
2009-03-03 08:10:05 51°15.302 2°49.529 12 306 5.8 101170 89
2009-03-03 08:10:10 51°15.3 2°49.501 13 23 5.8 101170 88
2009-03-03 08:10:16 51°15.297 2°49.468 12.1 305 5.8 101170 88
2009-03-03 08:10:21 51°15.296 2°49.441 13.1 21 5.8 101180 87
2009-03-03 08:10:25 51°15.294 2°49.419 14.3 310 5.8 101180 87
2009-03-03 08:10:31 51°15.292 2°49.386 14.4 19 5.8 101170 88
2009-03-03 08:10:36 51°15.29 2°49.358 11.5 303 5.8 101170 88
2009-03-03 08:10:41 51°15.288 2°49.331 13.8 27 5.8 101170 88
2009-03-03 08:10:46 51°15.287 2°49.303 13.5 307 5.8 101170 88
2009-03-03 08:10:51 51°15.286 2°49.275 13.5 21 5.8 101180 88
2009-03-03 08:10:56 51°15.285 2°49.248 11.4 306 5.8 101180 88
2009-03-03 08:11:01 51°15.283 2°49.22 11.5 26 5.8 101180 87
2009-03-03 08:11:05 51°15.282 2°49.198 14.1 307 5.8 101180 87
2009-03-03 08:11:10 51°15.28 2°49.171 15 22 5.8 101180 88
2009-03-03 08:11:16 51°15.278 2°49.138 15.2 305 5.8 101180 88
2009-03-03 08:11:21 51°15.277 2°49.11 12.2 24 5.8 101170 89
2009-03-03 08:11:25 51°15.275 2°49.088 12.1 304 5.8 101170 89
2009-03-03 08:11:31 51°15.273 2°49.055 14.1 22 5.9 101170 87
2009-03-03 08:11:36 51°15.272 2°49.027 14 306 5.9 101170 87
2009-03-03 08:11:41 51°15.27 2°49 14.6 22 5.8 101170 87
2009-03-03 08:11:46 51°15.268 2°48.972 11.9 308 5.8 101170 87
2009-03-03 08:11:50 51°15.267 2°48.949 11.6 26 5.9 101170 88
2009-03-03 08:11:56 51°15.266 2°48.916 14 310 5.9 101170 88
2009-03-03 08:12:01 51°15.264 2°48.889 14.1 21 5.9 101180 88
2009-03-03 08:12:05 51°15.264 2°48.867 12.1 303 5.9 101180 88
2009-03-03 08:12:10 51°15.263 2°48.839 13.7 26 5.9 101170 88
2009-03-03 08:12:16 51°15.262 2°48.806 11.9 306 5.9 101170 88
2009-03-03 08:12:21 51°15.261 2°48.778 12.3 26 5.9 101170 88
2009-03-03 08:12:26 51°15.26 2°48.751 12.3 306 5.9 101170 88
2009-03-03 08:12:31 51°15.259 2°48.723 12.9 24 5.9 101170 87
2009-03-03 08:12:36 51°15.258 2°48.695 11.4 302 5.9 101170 87
2009-03-03 08:12:41 51°15.257 2°48.668 15.3 26 5.9 101170 87
2009-03-03 08:12:45 51°15.256 2°48.645 13.3 306 5.9 101170 87
2009-03-03 08:12:50 51°15.254 2°48.618 11.9 24 5.9 101170 88
2009-03-03 08:12:56 51°15.252 2°48.584 13.3 310 5.9 101170 88
2009-03-03 08:13:01 51°15.251 2°48.557 11.3 23 5.9 101170 87
2009-03-03 08:13:05 51°15.25 2°48.534 14.1 310 5.9 101170 87
2009-03-03 08:13:11 51°15.249 2°48.501 13.5 19 5.9 101170 87
2009-03-03 08:13:16 51°15.248 2°48.473 11.8 301 5.9 101170 87
2009-03-03 08:13:21 51°15.246 2°48.445 11.1 24 5.9 101170 88
2009-03-03 08:13:26 51°15.244 2°48.418 12.1 308 5.9 101170 88
2009-03-03 08:13:30 51°15.243 2°48.395 11.7 24 5.9 101170 88
2009-03-03 08:13:36 51°15.242 2°48.362 13.7 304 5.9 101170 88
2009-03-03 08:13:41 51°15.24 2°48.334 12 27 5.9 101170 87
2009-03-03 08:13:46 51°15.239 2°48.307 14.6 306 5.9 101170 87
2009-03-03 08:13:50 51°15.238 2°48.285 13.3 22 5.9 101180 88
2009-03-03 08:13:56 51°15.236 2°48.251 11.2 304 5.9 101180 88
2009-03-03 08:14:01 51°15.235 2°48.224 13.7 25 5.9 101170 88
2009-03-03 08:14:05 51°15.234 2°48.201 12.8 306 5.9 101170 88
2009-03-03 08:14:10 51°15.232 2°48.174 11.6 26 5.9 101170 88
2009-03-03 08:14:16 51°15.231 2°48.14 12.3 307 5.9 101170 88
2009-03-03 08:14:21 51°15.229 2°48.113 11.7 26 5.9 101170 88
2009-03-03 08:14:26 51°15.227 2°48.085 11.7 304 5.9 101170 88
2009-03-03 08:14:30 51°15.226 2°48.063 14.9 23 5.9 101170 88
2009-03-03 08:14:36 51°15.224 2°48.03 11.8 301 5.9 101170 88
2009-03-03 08:14:41 51°15.222 2°48.002 13.3 25 5.9 101170 88
2009-03-03 08:14:46 51°15.219 2°47.975 13.5 306 5.9 101170 88
2009-03-03 08:14:51 51°15.217 2°47.948 12.4 21 5.9 101170 89
2009-03-03 08:14:56 51°15.215 2°47.92 12.7 308 5.9 101170 89
2009-03-03 08:15:01 51°15.213 2°47.893 11.9 20 5.9 101170 89
2009-03-03 08:15:05 51°15.212 2°47.871 11.9 308 5.9 101170 89
2009-03-03 08:15:10 51°15.21 2°47.843 13.7 26 5.9 101170 88
2009-03-03 08:15:16 51°15.208 2°47.81 11.6 306 5.9 101170 88
2009-03-03 08:15:21 51°15.206 2°47.783 12.4 25 5.9 101160 88
2009-03-03 08:15:25 51°15.204 2°47.761 14.1 307 5.9 101160 88
2009-03-03 08:15:31 51°15.202 2°47.728 11.8 26 5.9 101160 87
2009-03-03 08:15:36 51°15.2 2°47.7 12.2 305 5.9 101160 87
2009-03-03 08:15:41 51°15.198 2°47.673 14.1 20 5.9 101170 88
2009-03-03 08:15:46 51°15.197 2°47.646 16 307 5.9 101170 88
2009-03-03 08:15:50 51°15.196 2°47.624 12.4 24 5.9 101170 88
2009-03-03 08:15:56 51°15.196 2°47.591 13.9 303 5.9 101170 88
2009-03-03 08:16:01 51°15.195 2°47.563 14.2 25 5.9 101170 89
2009-03-03 08:16:05 51°15.196 2°47.541 13.9 283 5.9 101170 89
2009-03-03 08:16:11 51°15.197 2°47.508 14.4 26 5.9 101170 88
2009-03-03 08:16:16 51°15.198 2°47.481 11 306 5.9 101170 88
2009-03-03 08:16:21 51°15.198 2°47.453 13.5 20 5.9 101160 88
2009-03-03 08:16:26 51°15.2 2°47.425 11.1 304 5.9 101160 88
2009-03-03 08:16:30 51°15.201 2°47.403 14.4 21 6 101170 88
2009-03-03 08:16:36 51°15.202 2°47.37 11.7 310 6 101170 88
2009-03-03 08:16:41 51°15.204 2°47.342 14.2 24 6 101170 89
2009-03-03 08:16:46 51°15.206 2°47.314 15.2 308 6 101170 89
2009-03-03 08:16:51 51°15.207 2°47.287 10.8 24 5.9 101170 89
2009-03-03 08:16:56 51°15.209 2°47.259 14.4 307 5.9 101170 89
2009-03-03 08:17:01 51°15.21 2°47.231 14.2 24 5.9 101160 87
2009-03-03 08:17:05 51°15.212 2°47.209 13.2 283 5.9 101160 87
2009-03-03 08:17:10 51°15.213 2°47.181 16 25 6 101160 89
2009-03-03 08:17:16 51°15.214 2°47.148 13.8 305 6 101160 89
2009-03-03 08:17:21 51°15.216 2°47.12 13.5 23 6 101170 88
2009-03-03 08:17:26 51°15.217 2°47.092 14.6 302 6 101170 88
2009-03-03 08:17:31 51°15.218 2°47.064 15.1 22 6 101160 88
2009-03-03 08:17:36 51°15.22 2°47.036 12.6 303 6 101160 88
2009-03-03 08:17:41 51°15.221 2°47.008 12.3 27 6 101160 88
2009-03-03 08:17:46 51°15.222 2°46.98 15.5 304 6 101160 88
2009-03-03 08:17:50 51°15.223 2°46.958 13.6 21 6 101160 88
2009-03-03 08:17:56 51°15.225 2°46.924 14.6 304 6 101160 88
2009-03-03 08:18:01 51°15.226 2°46.896 14.5 25 6 101160 88
2009-03-03 08:18:06 51°15.227 2°46.868 13 309 6 101160 88
2009-03-03 08:18:10 51°15.228 2°46.846 13.7 20 6 101150 88
2009-03-03 08:18:16 51°15.229 2°46.812 15 308 6 101150 88
2009-03-03 08:18:21 51°15.23 2°46.784 13.1 25 6 101170 88
2009-03-03 08:18:25 51°15.231 2°46.762 13.7 308 6 101170 88
2009-03-03 08:18:31 51°15.232 2°46.728 12.6 19 6 101170 88
2009-03-03 08:18:36 51°15.233 2°46.7 14.2 303 6 101170 88
2009-03-03 08:18:41 51°15.234 2°46.672 14.4 24 6 101160 87
2009-03-03 08:18:46 51°15.235 2°46.644 14.5 304 6 101160 87
2009-03-03 08:18:51 51°15.235 2°46.615 14.5 27 6 101160 87
2009-03-03 08:18:56 51°15.236 2°46.587 11.9 304 6 101160 87
2009-03-03 08:19:01 51°15.236 2°46.559 13.7 23 6 101170 88
2009-03-03 08:19:05 51°15.237 2°46.536 12 286 6 101170 88
2009-03-03 08:19:10 51°15.237 2°46.508 11.8 25 6 101160 87
2009-03-03 08:19:16 51°15.237 2°46.474 14.8 309 6 101160 87
2009-03-03 08:19:21 51°15.238 2°46.446 15.6 21 6 101160 88
2009-03-03 08:19:26 51°15.238 2°46.418 12.5 304 6 101160 88
2009-03-03 08:19:31 51°15.238 2°46.39 12.4 27 6 101160 88
2009-03-03 08:19:36 51°15.238 2°46.362 15.1 306 6 101160 88
2009-03-03 08:19:41 51°15.237 2°46.334 15.4 21 6 101160 88
2009-03-03 08:19:46 51°15.237 2°46.306 13.8 310 6 101160 88
2009-03-03 08:19:50 51°15.237 2°46.283 12.3 19 6 101160 88
2009-03-03 08:19:56 51°15.237 2°46.249 14.6 306 6 101160 88
2009-03-03 08:20:01 51°15.237 2°46.221 11.5 21 6 101160 88
2009-03-03 08:20:05 51°15.237 2°46.199 15.4 306 6 101160 88
2009-03-03 08:20:11 51°15.237 2°46.165 12.3 21 6 101150 88
2009-03-03 08:20:16 51°15.238 2°46.136 11.8 305 6 101150 88
2009-03-03 08:20:21 51°15.237 2°46.108 11.8 24 6 101150 88
2009-03-03 08:20:25 51°15.238 2°46.085 12 302 6 101150 88
2009-03-03 08:20:30 51°15.238 2°46.057 15.5 28 6 101160 88
2009-03-03 08:20:36 51°15.238 2°46.023 11.7 305 6 101160 88
2009-03-03 08:20:41 51°15.237 2°45.995 11.4 21 6 101150 87
2009-03-03 08:20:46 51°15.237 2°45.966 14.9 304 6 101150 87
2009-03-03 08:20:50 51°15.237 2°45.944 13.9 23 6 101150 88
2009-03-03 08:20:56 51°15.237 2°45.91 11.3 303 6 101150 88
2009-03-03 08:21:01 51°15.237 2°45.882 11.8 24 6 101160 88
2009-03-03 08:21:05 51°15.237 2°45.859 11.6 277 6 101160 88
2009-03-03 08:21:10 51°15.237 2°45.831 12.2 24 6 101170 87
2009-03-03 08:21:16 51°15.236 2°45.797 13.2 303 6 101170 87
2009-03-03 08:21:21 51°15.236 2°45.769 12.3 23 6 101160 88
2009-03-03 08:21:26 51°15.236 2°45.741 12 307 6 101160 88
2009-03-03 08:21:31 51°15.236 2°45.713 15.1 22 6 101150 87
2009-03-03 08:21:36 51°15.236 2°45.685 11.1 305 6 101150 87
2009-03-03 08:21:41 51°15.235 2°45.657 13.8 24 6 101170 88
2009-03-03 08:21:45 51°15.235 2°45.634 12 306 6 101170 88
2009-03-03 08:21:50 51°15.235 2°45.606 13.9 22 6 101150 88
2009-03-03 08:21:56 51°15.235 2°45.572 14.2 305 6 101150 88
2009-03-03 08:22:01 51°15.235 2°45.544 14.3 24 6 101160 88
2009-03-03 08:22:05 51°15.235 2°45.522 14.6 308 6 101160 88
2009-03-03 08:22:11 51°15.235 2°45.488 11 20 6 101160 87
2009-03-03 08:22:16 51°15.235 2°45.46 15.1 309 6 101160 87
2009-03-03 08:22:21 51°15.235 2°45.432 12.1 18 6 101160 87
2009-03-03 08:22:26 51°15.235 2°45.404 15.2 303 6 101160 87
2009-03-03 08:22:31 51°15.235 2°45.377 14.1 24 6 101150 87
2009-03-03 08:22:36 51°15.234 2°45.348 11.7 306 6 101150 87
2009-03-03 08:22:41 51°15.234 2°45.32 14.2 21 6 101160 88
2009-03-03 08:22:45 51°15.234 2°45.298 11.2 304 6 101160 88
2009-03-03 08:22:51 51°15.234 2°45.264 11.8 26 6 101150 88
2009-03-03 08:22:56 51°15.233 2°45.236 12.1 307 6 101150 88
2009-03-03 08:23:01 51°15.233 2°45.208 13.3 23 6 101150 87
2009-03-03 08:23:06 51°15.233 2°45.18 12.4 282 6 101150 87
2009-03-03 08:23:10 51°15.233 2°45.158 12.1 25 6 101160 87
2009-03-03 08:23:16 51°15.232 2°45.124 12 306 6 101160 87
2009-03-03 08:23:21 51°15.231 2°45.096 14.3 25 6 101150 87
2009-03-03 08:23:26 51°15.232 2°45.067 14.6 308 6 101150 87
2009-03-03 08:23:30 51°15.231 2°45.045 12.9 21 6 101160 88
2009-03-03 08:23:36 51°15.232 2°45.011 12.7 304 6 101160 88
2009-03-03 08:23:41 51°15.232 2°44.983 14.5 22 6 101160 87
2009-03-03 08:23:45 51°15.232 2°44.96 13.4 303 6 101160 87
2009-03-03 08:23:50 51°15.232 2°44.932 14.8 22 6 101150 88
2009-03-03 08:23:56 51°15.232 2°44.898 14.8 308 6 101150 88
2009-03-03 08:24:01 51°15.233 2°44.87 14 20 6 101160 87
2009-03-03 08:24:06 51°15.233 2°44.841 14.4 303 6 101160 87
2009-03-03 08:24:11 51°15.233 2°44.813 13.5 24 6 101160 88
2009-03-03 08:24:16 51°15.233 2°44.784 11.2 306 6 101160 88
2009-03-03 08:24:21 51°15.232 2°44.756 13 25 6 101160 87
2009-03-03 08:24:25 51°15.232 2°44.733 13.9 304 6 101160 87
2009-03-03 08:24:30 51°15.231 2°44.704 11.6 26 6 101160 88
2009-03-03 08:24:36 51°15.231 2°44.67 14.2 310 6 101160 88
2009-03-03 08:24:41 51°15.23 2°44.642 13 21 6.1 101160 88
2009-03-03 08:24:45 51°15.23 2°44.619 15.4 308 6.1 101160 88
2009-03-03 08:24:51 51°15.23 2°44.584 12.4 26 6 101160 88
2009-03-03 08:24:56 51°15.229 2°44.556 14 307 6 101160 88
2009-03-03 08:25:01 51°15.229 2°44.527 14.3 22 6.1 101150 88
2009-03-03 08:25:06 51°15.229 2°44.499 14.8 279 6.1 101150 88
2009-03-03 08:25:10 51°15.229 2°44.476 13.8 22 6.1 101150 87
2009-03-03 08:25:16 51°15.229 2°44.441 13.8 308 6.1 101150 87
2009-03-03 08:25:21 51°15.229 2°44.413 13.9 21 6.1 101160 88
2009-03-03 08:25:25 51°15.229 2°44.39 12.5 305 6.1 101160 88
2009-03-03 08:25:30 51°15.229 2°44.361 11.7 24 6.1 101160 88
2009-03-03 08:25:36 51°15.229 2°44.326 14.6 308 6.1 101160 88
2009-03-03 08:25:41 51°15.23 2°44.298 11.1 25 6.1 101160 88
2009-03-03 08:25:46 51°15.23 2°44.269 11.5 301 6.1 101160 88
2009-03-03 08:25:51 51°15.23 2°44.241 12.9 25 6.1 101160 87
2009-03-03 08:25:56 51°15.231 2°44.212 11.5 302 6.1 101160 87
2009-03-03 08:26:01 51°15.231 2°44.184 13.9 27 6.1 101150 89
2009-03-03 08:26:06 51°15.231 2°44.155 14.4 304 6.1 101150 89
2009-03-03 08:26:10 51°15.231 2°44.132 12.1 25 6 101160 87
2009-03-03 08:26:16 51°15.231 2°44.098 13.4 304 6 101160 87
2009-03-03 08:26:21 51°15.231 2°44.07 15 22 6.1 101150 87
2009-03-03 08:26:25 51°15.231 2°44.047 13 305 6.1 101150 87
2009-03-03 08:26:31 51°15.231 2°44.013 12.9 26 6.1 101160 87
2009-03-03 08:26:36 51°15.231 2°43.985 12.5 303 6.1 101160 87
2009-03-03 08:26:41 51°15.231 2°43.956 13.9 21 6.1 101150 88
2009-03-03 08:26:46 51°15.231 2°43.928 14 307 6.1 101150 88
2009-03-03 08:26:51 51°15.23 2°43.9 15 24 6.1 101160 88
2009-03-03 08:26:56 51°15.23 2°43.872 13.2 303 6.1 101160 88
2009-03-03 08:27:01 51°15.229 2°43.844 11.6 23 6.1 101150 88
2009-03-03 08:27:05 51°15.228 2°43.822 11.7 306 6.1 101150 88
2009-03-03 08:27:10 51°15.228 2°43.794 15.5 23 6.1 101160 88
2009-03-03 08:27:16 51°15.228 2°43.76 14.8 308 6.1 101160 88
2009-03-03 08:27:21 51°15.227 2°43.733 12.1 20 6.1 101150 87
2009-03-03 08:27:26 51°15.227 2°43.705 14.8 306 6.1 101150 87
2009-03-03 08:27:30 51°15.226 2°43.682 12.6 23 6.1 101150 87
2009-03-03 08:27:36 51°15.226 2°43.649 12.2 308 6.1 101150 87
2009-03-03 08:27:41 51°15.226 2°43.621 14.9 24 6.1 101150 88
2009-03-03 08:27:46 51°15.225 2°43.593 12.7 308 6.1 101150 88
2009-03-03 08:27:50 51°15.225 2°43.57 12.3 24 6.1 101150 87
2009-03-03 08:27:56 51°15.225 2°43.537 11.8 304 6.1 101150 87
2009-03-03 08:28:01 51°15.225 2°43.509 11.8 26 6.1 101150 87
2009-03-03 08:28:05 51°15.224 2°43.487 12.2 306 6.1 101150 87
2009-03-03 08:28:10 51°15.224 2°43.459 12.1 23 6.1 101150 87
2009-03-03 08:28:16 51°15.224 2°43.425 14 305 6.1 101150 87
2009-03-03 08:28:21 51°15.223 2°43.397 14.9 24 6.1 101160 88
2009-03-03 08:28:26 51°15.223 2°43.369 13.9 305 6.1 101160 88
2009-03-03 08:28:31 51°15.223 2°43.341 14.5 24 6.1 101160 88
2009-03-03 08:28:36 51°15.223 2°43.313 15.1 304 6.1 101160 88
2009-03-03 08:28:41 51°15.222 2°43.285 13.9 21 6.1 101160 87
2009-03-03 08:28:45 51°15.222 2°43.262 11.8 307 6.1 101160 87
2009-03-03 08:28:50 51°15.222 2°43.234 12.9 22 6.1 101150 88
2009-03-03 08:28:56 51°15.223 2°43.2 12.5 305 6.1 101150 88
2009-03-03 08:29:01 51°15.223 2°43.172 13.8 19 6.1 101150 88
2009-03-03 08:29:05 51°15.223 2°43.15 15.1 308 6.1 101150 88
2009-03-03 08:29:11 51°15.224 2°43.116 13.8 21 6.1 101150 88
2009-03-03 08:29:16 51°15.225 2°43.088 12 304 6.1 101150 88
2009-03-03 08:29:21 51°15.225 2°43.06 14.8 23 6.1 101150 87
2009-03-03 08:29:26 51°15.226 2°43.032 11.7 304 6.1 101150 87
2009-03-03 08:29:30 51°15.226 2°43.009 14.4 24 6.1 101150 88
2009-03-03 08:29:36 51°15.227 2°42.975 13.8 309 6.1 101150 88
2009-03-03 08:29:41 51°15.227 2°42.947 13.6 20 6.1 101150 89
2009-03-03 08:29:46 51°15.228 2°42.919 13.5 302 6.1 101150 89
2009-03-03 08:29:50 51°15.227 2°42.897 13.8 27 6.1 101150 87
2009-03-03 08:29:56 51°15.228 2°42.863 14 308 6.1 101150 87
2009-03-03 08:30:01 51°15.227 2°42.835 12.3 24 6.1 101150 88
2009-03-03 08:30:05 51°15.227 2°42.812 13.4 278 6.1 101150 88
2009-03-03 08:30:10 51°15.227 2°42.784 13.9 24 6.1 101150 88
2009-03-03 08:30:16 51°15.226 2°42.75 12 310 6.1 101150 88
2009-03-03 08:30:21 51°15.225 2°42.722 15.3 20 6.1 101150 87
2009-03-03 08:30:26 51°15.225 2°42.694 13 309 6.1 101150 87
2009-03-03 08:30:30 51°15.225 2°42.671 12.3 24 6.1 101150 88
2009-03-03 08:30:36 51°15.224 2°42.637 12.2 307 6.1 101150 88
2009-03-03 08:30:41 51°15.223 2°42.609 13.4 20 6.1 101150 88
2009-03-03 08:30:46 51°15.223 2°42.581 14.5 304 6.1 101150 88
2009-03-03 08:30:51 51°15.222 2°42.553 14 27 6.2 101150 88
2009-03-03 08:30:56 51°15.222 2°42.525 11.9 306 6.2 101150 88
2009-03-03 08:31:01 51°15.222 2°42.497 14.5 26 6.2 101150 88
2009-03-03 08:31:05 51°15.221 2°42.474 14.5 277 6.2 101150 88
2009-03-03 08:31:10 51°15.22 2°42.446 13.8 25 6.1 101150 87
2009-03-03 08:31:16 51°15.22 2°42.413 12.1 306 6.1 101150 87
2009-03-03 08:31:21 51°15.219 2°42.385 13.2 25 6.1 101150 88
2009-03-03 08:31:26 51°15.218 2°42.357 12.6 303 6.1 101150 88
2009-03-03 08:31:31 51°15.218 2°42.329 13.8 22 6.1 101150 88
2009-03-03 08:31:36 51°15.217 2°42.3 15.2 308 6.1 101150 88
2009-03-03 08:31:41 51°15.216 2°42.273 14 23 6.1 101150 88
2009-03-03 08:31:46 51°15.215 2°42.245 12 304 6.1 101150 88
2009-03-03 08:31:50 51°15.214 2°42.223 14.8 24 6.1 101150 87
2009-03-03 08:31:56 51°15.213 2°42.189 13.5 303 6.1 101150 87
2009-03-03 08:32:01 51°15.212 2°42.161 13.9 24 6.1 101140 88
2009-03-03 08:32:05 51°15.212 2°42.138 13.9 306 6.1 101140 88
2009-03-03 08:32:10 51°15.211 2°42.111 13.7 24 6.1 101150 87
2009-03-03 08:32:16 51°15.21 2°42.077 14 306 6.1 101150 87
2009-03-03 08:32:21 51°15.209 2°42.049 12.5 25 6.2 101150 88
2009-03-03 08:32:26 51°15.208 2°42.021 13.7 305 6.2 101150 88
2009-03-03 08:32:30 51°15.207 2°41.998 11.8 23 6.1 101150 88
2009-03-03 08:32:36 51°15.207 2°41.965 14.5 309 6.1 101150 88
2009-03-03 08:32:41 51°15.207 2°41.937 12 22 6.2 101150 87
2009-03-03 08:32:46 51°15.206 2°41.909 14.4 304 6.2 101150 87
2009-03-03 08:32:51 51°15.206 2°41.88 12.7 23 6.1 101140 87
2009-03-03 08:32:56 51°15.205 2°41.853 11.5 306 6.1 101140 87
2009-03-03 08:33:01 51°15.205 2°41.824 14 24 6.2 101150 88
2009-03-03 08:33:05 51°15.205 2°41.802 14.1 306 6.2 101150 88
2009-03-03 08:33:10 51°15.204 2°41.774 11.9 21 6.2 101140 88
2009-03-03 08:33:16 51°15.204 2°41.74 13.9 309 6.2 101140 88
2009-03-03 08:33:21 51°15.204 2°41.712 13.9 23 6.2 101150 87
2009-03-03 08:33:26 51°15.204 2°41.684 11.8 306 6.2 101150 87
2009-03-03 08:33:31 51°15.203 2°41.655 12 22 6.2 101150 88
2009-03-03 08:33:36 51°15.202 2°41.628 12 306 6.2 101150 88
2009-03-03 08:33:41 51°15.201 2°41.6 12.9 24 6.2 101150 88
2009-03-03 08:33:46 51°15.2 2°41.571 11.5 304 6.2 101150 88
2009-03-03 08:33:50 51°15.2 2°41.549 12.5 26 6.2 101140 87
2009-03-03 08:33:56 51°15.199 2°41.516 13.6 311 6.2 101140 87
2009-03-03 08:34:01 51°15.199 2°41.487 14 22 6.2 101150 88
2009-03-03 08:34:06 51°15.199 2°41.46 13.8 304 6.2 101150 88
2009-03-03 08:34:10 51°15.198 2°41.437 11.3 26 6.2 101150 88
2009-03-03 08:34:16 51°15.198 2°41.404 14.4 306 6.2 101150 88
2009-03-03 08:34:21 51°15.197 2°41.376 14.3 21 6.2 101140 88
2009-03-03 08:34:25 51°15.196 2°41.354 13.1 305 6.2 101140 88
2009-03-03 08:34:30 51°15.196 2°41.326 14 26 6.2 101140 88
2009-03-03 08:34:36 51°15.195 2°41.292 14.3 307 6.2 101140 88
2009-03-03 08:34:41 51°15.195 2°41.265 13.7 24 6.2 101150 88
2009-03-03 08:34:46 51°15.195 2°41.237 11.6 305 6.2 101150 88
2009-03-03 08:34:51 51°15.194 2°41.209 11.5 24 6.2 101140 88
2009-03-03 08:34:56 51°15.194 2°41.181 12.3 303 6.2 101140 88
2009-03-03 08:35:01 51°15.194 2°41.153 13.5 25 6.2 101150 87
2009-03-03 08:35:05 51°15.193 2°41.13 14.5 305 6.2 101150 87
2009-03-03 08:35:10 51°15.193 2°41.102 14.5 25 6.2 101150 87
2009-03-03 08:35:16 51°15.192 2°41.068 14.3 307 6.2 101150 87
2009-03-03 08:35:21 51°15.192 2°41.04 14 20 6.2 101150 87
2009-03-03 08:35:26 51°15.192 2°41.012 13.3 307 6.2 101150 87
2009-03-03 08:35:31 51°15.191 2°40.984 12.6 22 6.2 101150 88
2009-03-03 08:35:36 51°15.191 2°40.956 14.1 309 6.2 101150 88
2009-03-03 08:35:41 51°15.19 2°40.928 13.1 21 6.2 101140 88
2009-03-03 08:35:46 51°15.19 2°40.9 14.4 308 6.2 101140 88
2009-03-03 08:35:51 51°15.189 2°40.872 13.5 19 6.2 101150 87
2009-03-03 08:35:56 51°15.188 2°40.844 12.2 304 6.2 101150 87
2009-03-03 08:36:01 51°15.188 2°40.815 11.8 26 6.2 101140 88
2009-03-03 08:36:05 51°15.187 2°40.793 14.6 305 6.2 101140 88
2009-03-03 08:36:10 51°15.187 2°40.765 13.8 23 6.2 101140 88
2009-03-03 08:36:16 51°15.187 2°40.731 14 304 6.2 101140 88
2009-03-03 08:36:21 51°15.186 2°40.703 12.9 26 6.2 101140 88
2009-03-03 08:36:25 51°15.186 2°40.681 13.5 310 6.2 101140 88
2009-03-03 08:36:31 51°15.186 2°40.647 11.8 22 6.2 101140 88
2009-03-03 08:36:36 51°15.186 2°40.62 13.6 304 6.2 101140 88
2009-03-03 08:36:41 51°15.185 2°40.592 13.8 25 6.2 101140 88
2009-03-03 08:36:46 51°15.185 2°40.564 13.7 310 6.2 101140 88
2009-03-03 08:36:50 51°15.184 2°40.541 11.7 18 6.2 101140 88
2009-03-03 08:36:56 51°15.184 2°40.508 12.4 305 6.2 101140 88
2009-03-03 08:37:01 51°15.183 2°40.48 14.4 22 6.2 101150 88
2009-03-03 08:37:06 51°15.183 2°40.452 14.9 286 6.2 101150 88
2009-03-03 08:37:10 51°15.183 2°40.43 14.8 25 6.2 101140 88
2009-03-03 08:37:16 51°15.182 2°40.396 14.7 308 6.2 101140 88
2009-03-03 08:37:21 51°15.182 2°40.368 14.7 22 6.2 101140 87
2009-03-03 08:37:25 51°15.181 2°40.346 13.6 308 6.2 101140 87
2009-03-03 08:37:30 51°15.18 2°40.318 12.2 25 6.2 101130 88
2009-03-03 08:37:36 51°15.179 2°40.285 11.8 308 6.2 101130 88
2009-03-03 08:37:41 51°15.178 2°40.257 14 24 6.3 101140 87
2009-03-03 08:37:46 51°15.177 2°40.229 13.9 305 6.3 101140 87
2009-03-03 08:37:51 51°15.177 2°40.201 14.9 21 6.2 101140 87
2009-03-03 08:37:56 51°15.176 2°40.173 13.9 307 6.2 101140 87
2009-03-03 08:38:01 51°15.175 2°40.146 13.2 22 6.3 101140 88
2009-03-03 08:38:06 51°15.174 2°40.118 14.4 308 6.3 101140 88
2009-03-03 08:38:11 51°15.174 2°40.09 12 24 6.2 101140 88
2009-03-03 08:38:16 51°15.173 2°40.062 12.4 301 6.2 101140 88
2009-03-03 08:38:21 51°15.172 2°40.034 13.1 27 6.3 101140 87
2009-03-03 08:38:25 51°15.171 2°40.012 13.6 305 6.3 101140 87
2009-03-03 08:38:30 51°15.171 2°39.984 12 23 6.3 101130 88
2009-03-03 08:38:36 51°15.17 2°39.951 14.1 302 6.3 101130 88
2009-03-03 08:38:41 51°15.169 2°39.923 12.1 25 6.2 101140 88
2009-03-03 08:38:46 51°15.168 2°39.895 13.8 306 6.2 101140 88
2009-03-03 08:38:51 51°15.167 2°39.867 14.2 21 6.2 101140 87
2009-03-03 08:38:56 51°15.166 2°39.839 12.2 306 6.2 101140 87
2009-03-03 08:39:01 51°15.165 2°39.811 14 26 6.2 101140 88
2009-03-03 08:39:06 51°15.164 2°39.783 13.6 307 6.2 101140 88
2009-03-03 08:39:10 51°15.163 2°39.761 14.2 22 6.3 101140 87
2009-03-03 08:39:16 51°15.162 2°39.727 14.5 307 6.3 101140 87
2009-03-03 08:39:21 51°15.162 2°39.699 13.2 24 6.3 101130 88
2009-03-03 08:39:26 51°15.161 2°39.671 13 306 6.3 101130 88
2009-03-03 08:39:30 51°15.16 2°39.648 13.6 24 6.2 101140 88
2009-03-03 08:39:36 51°15.159 2°39.615 14.5 310 6.2 101140 88
2009-03-03 08:39:41 51°15.158 2°39.587 13.6 21 6.3 101130 87
2009-03-03 08:39:45 51°15.157 2°39.564 13.5 307 6.3 101130 87
2009-03-03 08:39:51 51°15.156 2°39.531 12.5 20 6.2 101140 88
2009-03-03 08:39:56 51°15.156 2°39.502 13.8 305 6.2 101140 88
2009-03-03 08:40:01 51°15.155 2°39.474 13.5 22 6.2 101140 88
2009-03-03 08:40:06 51°15.154 2°39.446 12.2 306 6.2 101140 88
2009-03-03 08:40:11 51°15.154 2°39.418 14 20 6.2 101140 88
2009-03-03 08:40:16 51°15.153 2°39.39 14.4 308 6.2 101140 88
2009-03-03 08:40:21 51°15.152 2°39.362 13.9 24 6.3 101130 88
2009-03-03 08:40:25 51°15.151 2°39.339 12.3 303 6.3 101130 88
2009-03-03 08:40:30 51°15.15 2°39.311 15.1 26 6.2 101130 87
2009-03-03 08:40:36 51°15.149 2°39.277 11.6 308 6.2 101130 87
2009-03-03 08:40:41 51°15.148 2°39.249 13.7 22 6.2 101130 88
2009-03-03 08:40:45 51°15.148 2°39.226 12.6 304 6.2 101130 88
2009-03-03 08:40:51 51°15.147 2°39.192 12.3 23 6.2 101130 87
2009-03-03 08:40:56 51°15.146 2°39.164 13.6 303 6.2 101130 87
2009-03-03 08:41:01 51°15.145 2°39.136 12.1 24 6.2 101130 87
2009-03-03 08:41:06 51°15.144 2°39.108 12.6 281 6.2 101130 87
2009-03-03 08:41:11 51°15.143 2°39.08 12.2 22 6.2 101130 87
2009-03-03 08:41:16 51°15.143 2°39.051 11.8 302 6.2 101130 87
2009-03-03 08:41:21 51°15.142 2°39.023 13 25 6.2 101130 88
2009-03-03 08:41:25 51°15.143 2°39.001 11.2 302 6.2 101130 88
2009-03-03 08:41:30 51°15.143 2°38.973 13.6 26 6.2 101130 88
2009-03-03 08:41:36 51°15.147 2°38.939 11 302 6.2 101130 88
2009-03-03 08:41:41 51°15.151 2°38.912 10.7 26 6.3 101130 88
2009-03-03 08:41:46 51°15.157 2°38.886 10.7 305 6.3 101130 88
2009-03-03 08:41:51 51°15.162 2°38.859 9.5 24 6.3 101130 87
2009-03-03 08:41:56 51°15.168 2°38.833 11.6 310 6.3 101130 87
2009-03-03 08:42:01 51°15.175 2°38.807 12.4 20 6.2 101140 87
2009-03-03 08:42:06 51°15.182 2°38.781 11 308 6.2 101140 87
2009-03-03 08:42:11 51°15.189 2°38.754 12.7 19 6.3 101140 87
2009-03-03 08:42:16 51°15.196 2°38.728 10.3 303 6.3 101140 87
2009-03-03 08:42:21 51°15.202 2°38.702 12.1 22 6.2 101140 87
2009-03-03 08:42:26 51°15.21 2°38.676 9.8 305 6.2 101140 87
2009-03-03 08:42:30 51°15.215 2°38.655 12.1 21 6.2 101150 88
2009-03-03 08:42:36 51°15.222 2°38.622 12.6 307 6.2 101150 88
2009-03-03 08:42:41 51°15.229 2°38.596 12 24 6.3 101140 87
2009-03-03 08:42:45 51°15.234 2°38.574 9.9 309 6.3 101140 87
2009-03-03 08:42:51 51°15.241 2°38.542 10.5 21 6.2 101140 88
2009-03-03 08:42:56 51°15.247 2°38.515 10.6 308 6.2 101140 88
2009-03-03 08:43:01 51°15.253 2°38.488 12.8 22 6.2 101130 87
2009-03-03 08:43:06 51°15.259 2°38.461 12.6 284 6.2 101130 87
2009-03-03 08:43:11 51°15.264 2°38.434 10.5 24 6.3 101140 87
2009-03-03 08:43:16 51°15.269 2°38.407 11.2 306 6.3 101140 87
2009-03-03 08:43:21 51°15.277 2°38.382 9.5 25 6.3 101140 88
2009-03-03 08:43:26 51°15.285 2°38.358 10.1 303 6.3 101140 88
2009-03-03 08:43:31 51°15.294 2°38.333 9.9 25 6.3 101130 88
2009-03-03 08:43:36 51°15.302 2°38.308 10.8 307 6.3 101130 88
2009-03-03 08:43:41 51°15.311 2°38.284 11.1 23 6.3 101130 89
2009-03-03 08:43:45 51°15.319 2°38.265 10 305 6.3 101130 89
2009-03-03 08:43:50 51°15.329 2°38.241 10.6 20 6.2 101140 88
2009-03-03 08:43:56 51°15.339 2°38.212 10.7 305 6.2 101140 88
2009-03-03 08:44:01 51°15.349 2°38.188 10.6 22 6.3 101150 88
2009-03-03 08:44:06 51°15.359 2°38.164 11.6 308 6.3 101150 88
2009-03-03 08:44:11 51°15.368 2°38.14 11 24 6.3 101140 88
2009-03-03 08:44:16 51°15.377 2°38.116 10.9 308 6.3 101140 88
2009-03-03 08:44:21 51°15.386 2°38.092 12.1 21 6.2 101140 87
2009-03-03 08:44:26 51°15.396 2°38.067 9.9 305 6.2 101140 87
2009-03-03 08:44:30 51°15.403 2°38.048 9.1 24 6.2 101140 88
2009-03-03 08:44:36 51°15.414 2°38.018 11.2 305 6.2 101140 88
2009-03-03 08:44:41 51°15.422 2°37.993 11.6 24 6.3 101150 87
2009-03-03 08:44:46 51°15.431 2°37.968 11.8 307 6.3 101150 87
2009-03-03 08:44:50 51°15.438 2°37.948 9.2 21 6.3 101140 87
2009-03-03 08:44:56 51°15.448 2°37.918 12.1 303 6.3 101140 87
2009-03-03 08:45:01 51°15.456 2°37.892 10.5 24 6.3 101140 87
2009-03-03 08:45:05 51°15.463 2°37.872 10.6 303 6.3 101140 87
2009-03-03 08:45:11 51°15.472 2°37.841 9.8 25 6.3 101150 87
2009-03-03 08:45:16 51°15.48 2°37.816 11.7 306 6.3 101150 87
2009-03-03 08:45:21 51°15.488 2°37.79 12.2 23 6.3 101140 87
2009-03-03 08:45:26 51°15.497 2°37.765 10.6 303 6.3 101140 87
2009-03-03 08:45:30 51°15.503 2°37.744 11 25 6.2 101140 88
2009-03-03 08:45:36 51°15.513 2°37.714 9.8 306 6.2 101140 88
2009-03-03 08:45:41 51°15.522 2°37.688 10 20 6.3 101140 87
2009-03-03 08:45:46 51°15.53 2°37.663 12 308 6.3 101140 87
2009-03-03 08:45:50 51°15.537 2°37.642 9.9 25 6.3 101140 88
2009-03-03 08:45:56 51°15.547 2°37.612 9.6 301 6.3 101140 88
2009-03-03 08:46:01 51°15.555 2°37.586 10.5 21 6.3 101130 88
2009-03-03 08:46:05 51°15.562 2°37.566 9.9 304 6.3 101130 88
2009-03-03 08:46:10 51°15.571 2°37.54 9.7 20 6.3 101140 88
2009-03-03 08:46:16 51°15.582 2°37.51 10.7 306 6.3 101140 88
2009-03-03 08:46:21 51°15.59 2°37.484 8.8 19 6.3 101140 87
2009-03-03 08:46:26 51°15.598 2°37.459 10.9 309 6.3 101140 87
2009-03-03 08:46:30 51°15.605 2°37.439 11.1 25 6.3 101140 89
2009-03-03 08:46:36 51°15.615 2°37.408 9.8 308 6.3 101140 89
2009-03-03 08:46:41 51°15.624 2°37.382 10.6 25 6.2 101140 89
2009-03-03 08:46:46 51°15.632 2°37.357 9.7 309 6.2 101140 89
2009-03-03 08:46:51 51°15.641 2°37.332 11.1 22 6.3 101140 87
2009-03-03 08:46:56 51°15.649 2°37.306 9.5 306 6.3 101140 87
2009-03-03 08:47:01 51°15.657 2°37.28 12.2 20 6.3 101140 88
2009-03-03 08:47:05 51°15.664 2°37.259 11.2 305 6.3 101140 88
2009-03-03 08:47:10 51°15.671 2°37.233 11.5 25 6.3 101140 89
2009-03-03 08:47:16 51°15.68 2°37.201 11.2 307 6.3 101140 89
2009-03-03 08:47:21 51°15.686 2°37.174 10.5 23 6.3 101140 87
2009-03-03 08:47:26 51°15.693 2°37.148 9.8 302 6.3 101140 87
2009-03-03 08:47:31 51°15.699 2°37.121 12.3 25 6.3 101130 87
2009-03-03 08:47:36 51°15.705 2°37.094 11.6 309 6.3 101130 87
2009-03-03 08:47:41 51°15.71 2°37.067 9.9 21 6.3 101130 88
2009-03-03 08:47:46 51°15.716 2°37.039 10.9 304 6.3 101130 88
2009-03-03 08:47:50 51°15.721 2°37.018 12.6 20 6.3 101130 88
2009-03-03 08:47:56 51°15.727 2°36.985 10.2 301 6.3 101130 88
2009-03-03 08:48:01 51°15.732 2°36.958 10 24 6.3 101130 87
2009-03-03 08:48:05 51°15.737 2°36.936 13.5 307 6.3 101130 87
2009-03-03 08:48:10 51°15.742 2°36.909 11.1 25 6.3 101130 87
2009-03-03 08:48:16 51°15.748 2°36.875 12.9 304 6.3 101130 87
2009-03-03 08:48:21 51°15.753 2°36.848 10.9 24 6.3 101130 87
2009-03-03 08:48:26 51°15.757 2°36.82 10.5 306 6.3 101130 87
2009-03-03 08:48:30 51°15.76 2°36.797 9.9 26 6.2 101130 88
2009-03-03 08:48:36 51°15.766 2°36.764 13.1 303 6.2 101130 88
2009-03-03 08:48:41 51°15.77 2°36.736 10.3 27 6.3 101130 88
2009-03-03 08:48:46 51°15.775 2°36.708 11.4 304 6.3 101130 88
2009-03-03 08:48:51 51°15.779 2°36.68 12.3 21 6.2 101120 89
2009-03-03 08:48:56 51°15.784 2°36.653 10.5 303 6.2 101120 89
2009-03-03 08:49:01 51°15.788 2°36.625 10.8 20 6.3 101120 87
2009-03-03 08:49:05 51°15.791 2°36.602 10.6 282 6.3 101120 87
2009-03-03 08:49:10 51°15.795 2°36.574 11 20 6.2 101120 87
2009-03-03 08:49:16 51°15.8 2°36.54 12.5 301 6.2 101120 87
2009-03-03 08:49:21 51°15.804 2°36.512 12.8 24 6.3 101130 87
2009-03-03 08:49:26 51°15.808 2°36.484 12.9 307 6.3 101130 87
2009-03-03 08:49:31 51°15.811 2°36.456 11.5 23 6.2 101120 88
2009-03-03 08:49:36 51°15.814 2°36.428 13 308 6.2 101120 88
2009-03-03 08:49:41 51°15.817 2°36.399 10 25 6.3 101120 88
2009-03-03 08:49:46 51°15.821 2°36.371 11.3 307 6.3 101120 88
2009-03-03 08:49:50 51°15.825 2°36.349 13.2 25 6.2 101130 87
2009-03-03 08:49:56 51°15.833 2°36.318 11.3 305 6.2 101130 87
2009-03-03 08:50:01 51°15.841 2°36.294 10.3 24 6.3 101120 88
2009-03-03 08:50:06 51°15.851 2°36.271 10.5 303 6.3 101120 88
2009-03-03 08:50:10 51°15.859 2°36.252 9.6 23 6.3 101120 88
2009-03-03 08:50:16 51°15.871 2°36.225 8.4 302 6.3 101120 88
2009-03-03 08:50:21 51°15.883 2°36.205 7.7 19 6.3 101130 88
2009-03-03 08:50:25 51°15.893 2°36.189 7.8 305 6.3 101130 88
2009-03-03 08:50:30 51°15.906 2°36.17 8.2 247 6.3 101130 87
2009-03-03 08:50:36 51°15.922 2°36.149 7.8 305 6.3 101130 87
2009-03-03 08:50:41 51°15.936 2°36.132 8.5 252 6.3 101140 89
2009-03-03 08:50:46 51°15.951 2°36.116 6.7 303 6.3 101140 89
2009-03-03 08:50:51 51°15.966 2°36.102 7.1 253 6.3 101140 87
2009-03-03 08:50:56 51°15.981 2°36.087 7.2 303 6.3 101140 87
2009-03-03 08:51:01 51°15.996 2°36.073 6.5 255 6.3 101140 89
2009-03-03 08:51:05 51°16.008 2°36.062 6.4 281 6.3 101140 89
2009-03-03 08:51:10 51°16.024 2°36.05 7.2 254 6.3 101150 87
2009-03-03 08:51:16 51°16.043 2°36.034 5.5 309 6.3 101150 87
2009-03-03 08:51:21 51°16.059 2°36.022 6.4 254 6.3 101140 88
2009-03-03 08:51:26 51°16.074 2°36.009 6.8 306 6.3 101140 88
2009-03-03 08:51:31 51°16.09 2°35.997 5.7 251 6.3 101140 87
2009-03-03 08:51:36 51°16.106 2°35.985 7.1 304 6.3 101140 87
2009-03-03 08:51:41 51°16.122 2°35.973 5.5 19 6.3 101150 87
2009-03-03 08:51:46 51°16.138 2°35.963 5.2 308 6.3 101150 87
2009-03-03 08:51:51 51°16.154 2°35.951 4.9 255 6.3 101140 87
2009-03-03 08:51:56 51°16.171 2°35.942 6.1 309 6.3 101140 87
2009-03-03 08:52:01 51°16.187 2°35.931 5.5 259 6.3 101140 87
2009-03-03 08:52:05 51°16.2 2°35.924 4.7 308 6.3 101140 87
2009-03-03 08:52:10 51°16.217 2°35.914 5.2 259 6.3 101140 89
2009-03-03 08:52:16 51°16.237 2°35.903 4.7 304 6.3 101140 89
2009-03-03 08:52:21 51°16.254 2°35.896 5.9 259 6.3 101150 87
2009-03-03 08:52:25 51°16.267 2°35.889 2.9 305 6.3 101150 87
2009-03-03 08:52:31 51°16.287 2°35.881 4.7 257 6.3 101150 88
2009-03-03 08:52:36 51°16.304 2°35.874 4.3 304 6.3 101150 88
2009-03-03 08:52:41 51°16.321 2°35.868 4.4 258 6.3 101150 89
2009-03-03 08:52:46 51°16.338 2°35.862 4 307 6.3 101150 89
2009-03-03 08:52:50 51°16.351 2°35.856 2.7 262 6.3 101150 88
2009-03-03 08:52:56 51°16.371 2°35.848 3.7 308 6.3 101150 88
2009-03-03 08:53:01 51°16.388 2°35.842 3.8 259 6.3 101150 88
2009-03-03 08:53:06 51°16.405 2°35.836 4.1 281 6.3 101150 88
2009-03-03 08:53:10 51°16.418 2°35.831 2.2 262 6.3 101140 88
2009-03-03 08:53:16 51°16.438 2°35.824 4.1 305 6.3 101140 88
2009-03-03 08:53:21 51°16.455 2°35.818 4.7 261 6.3 101140 89
2009-03-03 08:53:25 51°16.468 2°35.813 5 309 6.3 101140 89
2009-03-03 08:53:31 51°16.488 2°35.805 3.7 259 6.3 101140 89
2009-03-03 08:53:36 51°16.505 2°35.8 2.7 305 6.3 101140 89
2009-03-03 08:53:41 51°16.521 2°35.794 4.2 259 6.3 101140 88
2009-03-03 08:53:46 51°16.538 2°35.788 3.5 302 6.3 101140 88
2009-03-03 08:53:51 51°16.554 2°35.782 5.2 260 6.3 101150 88
2009-03-03 08:53:56 51°16.571 2°35.776 3 303 6.3 101150 88
2009-03-03 08:54:01 51°16.588 2°35.769 4 260 6.3 101150 88
2009-03-03 08:54:06 51°16.604 2°35.763 4.4 281 6.3 101150 88
2009-03-03 08:54:11 51°16.621 2°35.757 4.8 258 6.3 101150 88
2009-03-03 08:54:16 51°16.637 2°35.75 3.2 303 6.3 101150 88
2009-03-03 08:54:21 51°16.654 2°35.745 4.5 261 6.3 101140 88
2009-03-03 08:54:25 51°16.667 2°35.739 5 304 6.3 101140 88
2009-03-03 08:54:31 51°16.687 2°35.732 4.6 252 6.3 101140 88
2009-03-03 08:54:36 51°16.703 2°35.724 5.2 305 6.3 101140 88
2009-03-03 08:54:41 51°16.72 2°35.716 5 254 6.3 101140 89
2009-03-03 08:54:46 51°16.736 2°35.708 5.3 303 6.3 101140 89
2009-03-03 08:54:51 51°16.752 2°35.699 4 259 6.3 101140 87
2009-03-03 08:54:56 51°16.768 2°35.692 5.1 303 6.3 101140 87
2009-03-03 08:55:01 51°16.784 2°35.682 3.8 260 6.3 101140 87
2009-03-03 08:55:06 51°16.8 2°35.675 5.2 280 6.3 101140 87
2009-03-03 08:55:10 51°16.813 2°35.667 3.9 259 6.3 101140 88
2009-03-03 08:55:16 51°16.833 2°35.657 5.1 304 6.3 101140 88
2009-03-03 08:55:21 51°16.849 2°35.648 5.6 260 6.3 101140 89
2009-03-03 08:55:25 51°16.862 2°35.641 5.4 308 6.3 101140 89
2009-03-03 08:55:30 51°16.878 2°35.632 5.3 254 6.3 101140 88
2009-03-03 08:55:36 51°16.897 2°35.621 6.3 303 6.3 101140 88
2009-03-03 08:55:41 51°16.914 2°35.612 4.4 254 6.3 101140 88
2009-03-03 08:55:46 51°16.93 2°35.603 6.2 305 6.3 101140 88
2009-03-03 08:55:51 51°16.946 2°35.593 6.5 259 6.3 101140 88
2009-03-03 08:55:56 51°16.962 2°35.584 4.5 308 6.3 101140 88
2009-03-03 08:56:01 51°16.978 2°35.574 4.9 252 6.3 101140 88
2009-03-03 08:56:06 51°16.994 2°35.565 5.3 281 6.3 101140 88
2009-03-03 08:56:11 51°17.01 2°35.555 6.8 254 6.3 101140 88
2009-03-03 08:56:16 51°17.026 2°35.544 5.1 304 6.3 101140 88
2009-03-03 08:56:21 51°17.042 2°35.534 6.4 257 6.3 101150 89
2009-03-03 08:56:25 51°17.054 2°35.525 5 304 6.3 101150 89
2009-03-03 08:56:31 51°17.073 2°35.512 6.1 253 6.3 101150 88
2009-03-03 08:56:36 51°17.089 2°35.5 4.7 308 6.3 101150 88
2009-03-03 08:56:41 51°17.105 2°35.49 7.5 255 6.3 101140 88
2009-03-03 08:56:46 51°17.121 2°35.478 5.3 303 6.3 101140 88
2009-03-03 08:56:51 51°17.137 2°35.466 5.9 255 6.3 101140 87
2009-03-03 08:56:56 51°17.152 2°35.454 6.7 307 6.3 101140 87
2009-03-03 08:57:01 51°17.168 2°35.443 6.7 256 6.3 101150 88
2009-03-03 08:57:06 51°17.184 2°35.431 7.7 304 6.3 101150 88
2009-03-03 08:57:10 51°17.197 2°35.422 6.7 252 6.3 101150 87
2009-03-03 08:57:16 51°17.216 2°35.407 5.8 308 6.3 101150 87
2009-03-03 08:57:21 51°17.232 2°35.396 7.5 254 6.3 101140 88
2009-03-03 08:57:26 51°17.247 2°35.384 6.5 303 6.3 101140 88
2009-03-03 08:57:30 51°17.26 2°35.375 6.3 254 6.3 101140 89
2009-03-03 08:57:36 51°17.279 2°35.361 6.4 307 6.3 101140 89
2009-03-03 08:57:41 51°17.295 2°35.349 8.3 257 6.3 101140 88
2009-03-03 08:57:45 51°17.308 2°35.34 6 307 6.3 101140 88
2009-03-03 08:57:51 51°17.327 2°35.325 7.2 253 6.3 101140 88
2009-03-03 08:57:56 51°17.344 2°35.314 7.7 304 6.3 101140 88
2009-03-03 08:58:01 51°17.36 2°35.302 5.6 20 6.3 101140 88
2009-03-03 08:58:06 51°17.376 2°35.29 6.7 308 6.3 101140 88
2009-03-03 08:58:11 51°17.392 2°35.278 6.7 251 6.3 101140 88
2009-03-03 08:58:16 51°17.408 2°35.266 7.7 305 6.3 101140 88
2009-03-03 08:58:21 51°17.424 2°35.254 7.5 252 6.3 101140 88
2009-03-03 08:58:25 51°17.436 2°35.242 5.8 303 6.3 101140 88
2009-03-03 08:58:31 51°17.455 2°35.226 6.3 249 6.4 101140 88
2009-03-03 08:58:36 51°17.47 2°35.211 7.9 305 6.4 101140 88
2009-03-03 08:58:41 51°17.485 2°35.196 6.3 21 6.3 101140 87
2009-03-03 08:58:46 51°17.5 2°35.181 8 304 6.3 101140 87
2009-03-03 08:58:51 51°17.515 2°35.164 7.9 250 6.3 101140 89
2009-03-03 08:58:56 51°17.53 2°35.149 8.3 303 6.3 101140 89
2009-03-03 08:59:01 51°17.544 2°35.132 7.6 23 6.4 101130 88
2009-03-03 08:59:06 51°17.559 2°35.116 7.2 281 6.4 101130 88
2009-03-03 08:59:10 51°17.57 2°35.102 8.4 249 6.3 101130 89
2009-03-03 08:59:16 51°17.587 2°35.082 8.5 310 6.3 101130 89
2009-03-03 08:59:21 51°17.602 2°35.066 6.9 21 6.3 101140 87
2009-03-03 08:59:25 51°17.614 2°35.053 7.7 305 6.3 101140 87
2009-03-03 08:59:30 51°17.629 2°35.037 7.1 250 6.4 101140 88
2009-03-03 08:59:36 51°17.647 2°35.017 7.1 309 6.4 101140 88
2009-03-03 08:59:41 51°17.662 2°35.001 6.2 246 6.3 101140 87
2009-03-03 08:59:46 51°17.676 2°34.984 7.1 309 6.3 101140 87
2009-03-03 08:59:51 51°17.691 2°34.968 8.2 249 6.3 101130 87
2009-03-03 08:59:56 51°17.706 2°34.951 6.5 303 6.3 101130 87
2009-03-03 09:00:01 51°17.72 2°34.934 6.6 26 6.3 101130 87
2009-03-03 09:00:05 51°17.732 2°34.92 7.6 304 6.3 101130 87
2009-03-03 09:00:10 51°17.745 2°34.9 8.4 20 6.3 101130 87
2009-03-03 09:00:16 51°17.761 2°34.878 7.5 306 6.3 101130 87
2009-03-03 09:00:21 51°17.773 2°34.857 9.7 25 6.4 101130 88
2009-03-03 09:00:25 51°17.783 2°34.841 8.8 305 6.4 101130 88
2009-03-03 09:00:31 51°17.796 2°34.815 9.5 245 6.4 101120 88
2009-03-03 09:00:36 51°17.808 2°34.793 8.7 307 6.4 101120 88
2009-03-03 09:00:41 51°17.819 2°34.771 10 20 6.4 101120 87
2009-03-03 09:00:46 51°17.829 2°34.747 11.2 307 6.4 101120 87
2009-03-03 09:00:51 51°17.836 2°34.722 9.9 23 6.4 101120 89
2009-03-03 09:00:56 51°17.843 2°34.697 11.2 309 6.4 101120 89
2009-03-03 09:01:01 51°17.847 2°34.67 11.8 26 6.4 101130 88
2009-03-03 09:01:05 51°17.852 2°34.649 11.9 281 6.4 101130 88
2009-03-03 09:01:10 51°17.856 2°34.622 11.1 21 6.4 101120 88
2009-03-03 09:01:16 51°17.862 2°34.589 13.1 305 6.4 101120 88
2009-03-03 09:01:21 51°17.865 2°34.561 10.9 25 6.4 101120 87
2009-03-03 09:01:25 51°17.868 2°34.538 12.8 303 6.4 101120 87
2009-03-03 09:01:31 51°17.872 2°34.505 12.4 21 6.4 101100 88
2009-03-03 09:01:36 51°17.877 2°34.477 12.9 307 6.4 101100 88
2009-03-03 09:01:41 51°17.881 2°34.449 12.9 25 6.3 101110 88
2009-03-03 09:01:46 51°17.886 2°34.421 12.9 303 6.3 101110 88
2009-03-03 09:01:51 51°17.891 2°34.393 10.9 25 6.4 101100 87
2009-03-03 09:01:56 51°17.895 2°34.365 11.3 303 6.4 101100 87
2009-03-03 09:02:01 51°17.901 2°34.338 11.7 25 6.4 101100 88
2009-03-03 09:02:05 51°17.905 2°34.315 12.2 305 6.4 101100 88
2009-03-03 09:02:10 51°17.91 2°34.288 12.6 27 6.4 101100 88
2009-03-03 09:02:16 51°17.917 2°34.255 11.9 307 6.4 101100 88
2009-03-03 09:02:21 51°17.923 2°34.228 11.8 23 6.4 101100 87
2009-03-03 09:02:26 51°17.928 2°34.201 11.9 308 6.4 101100 87
2009-03-03 09:02:31 51°17.933 2°34.173 13 21 6.4 101100 88
2009-03-03 09:02:36 51°17.939 2°34.146 13 306 6.4 101100 88
2009-03-03 09:02:41 51°17.944 2°34.119 12.7 20 6.4 101100 89
2009-03-03 09:02:46 51°17.949 2°34.091 11.6 303 6.4 101100 89
2009-03-03 09:02:51 51°17.955 2°34.064 12.4 27 6.4 101100 87
2009-03-03 09:02:56 51°17.96 2°34.037 11 304 6.4 101100 87
2009-03-03 09:03:01 51°17.966 2°34.01 12.6 25 6.4 101090 88
2009-03-03 09:03:06 51°17.971 2°33.982 10.8 307 6.4 101090 88
2009-03-03 09:03:11 51°17.977 2°33.955 10.5 20 6.4 101100 88
2009-03-03 09:03:16 51°17.983 2°33.928 11.9 307 6.4 101100 88
2009-03-03 09:03:21 51°17.989 2°33.9 12.3 21 6.4 101100 88
2009-03-03 09:03:26 51°17.995 2°33.873 12.4 308 6.4 101100 88
2009-03-03 09:03:31 51°18.001 2°33.846 10.7 25 6.4 101100 88
2009-03-03 09:03:36 51°18.007 2°33.819 12.5 303 6.4 101100 88
2009-03-03 09:03:41 51°18.013 2°33.792 10.5 25 6.4 101100 88
2009-03-03 09:03:45 51°18.018 2°33.77 10.2 307 6.4 101100 88
2009-03-03 09:03:51 51°18.025 2°33.738 10.9 20 6.4 101100 89
2009-03-03 09:03:56 51°18.031 2°33.71 12.5 306 6.4 101100 89
2009-03-03 09:04:01 51°18.037 2°33.683 12.4 26 6.4 101110 88
2009-03-03 09:04:06 51°18.043 2°33.656 13 304 6.4 101110 88
2009-03-03 09:04:11 51°18.049 2°33.629 11.1 24 6.4 101110 88
2009-03-03 09:04:16 51°18.055 2°33.602 10.6 309 6.4 101110 88
2009-03-03 09:04:21 51°18.061 2°33.575 12.3 19 6.4 101100 88